Regional Weather Roundup
Issued by NWS

Home | Current Version | Previous Version | Text Only | Print | Product List | Glossary On
Versions: 1 2 3 4 5 6 7 8 9 10 11 12 13 14 15 16 17 18 19 20 21 22 23 24 25 26 27 28 29 30 31 32 33 34 35 36 37 38 39 40 41 42 43 44 45 46 47 48 49 50
000
ASUS43 KLSX 271607
RWRMO

WEATHER SUMMARY FOR MISSOURI
NATIONAL WEATHER SERVICE SPRINGFIELD MO
1100 AM CDT MON APR 27 2015

NOTE: "FAIR" INDICATES FEW OR NO CLOUDS BELOW 12,000 FEET WITH NO
       SIGNIFICANT WEATHER AND/OR OBSTRUCTIONS TO VISIBILITY.
       CURRENT SKY AND/OR WEATHER CONDITIONS ARE NOT AVAILABLE FOR
       CHILLICOTHE AND FARMINGTON.

MOZ001>031-035>038-043-044-053-054-271700-
...NORTHERN AND WESTERN MISSOURI...

CITY           SKY/WX    TMP DP  RH WIND       PRES   REMARKS
KANSAS CTY INT PTSUNNY   58  39  49 E14G20    30.17F
KANSAS C DTWN  PTSUNNY   60  37  42 E12       30.16F
LEE`S SUMMIT   PTSUNNY   57  38  48 E13       30.16F
ST JOSEPH      PTSUNNY   60  36  40 E12       30.19F
CHILLICOTHE      N/A     61  39  44 N5        30.20R
KIRKSVILLE     SUNNY     61  39  44 N7        30.18R

$$
MOZ066>068-077>081-088>096-101>105-271700-
...SOUTHWEST MISSOURI...

CITY           SKY/WX    TMP DP  RH WIND       PRES   REMARKS
SPRINGFIELD    SUNNY     58  30  34 E20G28    30.07F
JOPLIN         SUNNY     59  32  36 E17G32    30.04F

$$
MOZ032>034-039>042-045>050-055>058-069>072-271700-
...CENTRAL MISSOURI...

CITY           SKY/WX    TMP DP  RH WIND       PRES   REMARKS
COLUMBIA       CLOUDY    58  39  49 NE13      30.17S
JEFFERSON CITY CLOUDY    58  33  39 N8        30.16S
ROLLA          CLOUDY    56  35  45 NE13      30.13S
SEDALIA        PTSUNNY   58  41  53 NE5       30.18S
WHITEMAN AFB   PTSUNNY   58  39  49 E7        30.16S
WARRENSBURG    PTSUNNY   55  36  47 NE9       30.17S
OSAGE BEACH    PTSUNNY   57  34  41 E9        30.15S

$$
MOZ051-052-059>065-271700-
...EAST CENTRAL MISSOURI...

CITY           SKY/WX    TMP DP  RH WIND       PRES   REMARKS
ST LOUIS INTL  CLOUDY    59  35  40 N10       30.16R
SPIRIT OF STL  CLOUDY    56  33  42 CALM      30.16S
ST CHARLES     PTSUNNY   57  34  41 N6        30.16R

$$
MOZ072>076-082>087-097>100-106>115-271700-
...SOUTH CENTRAL AND SOUTHEAST MISSOURI...

CITY           SKY/WX    TMP DP  RH WIND       PRES   REMARKS
CAPE GIRARDEAU PTSUNNY   58  36  43 NE14      30.09F
FARMINGTON     CLOUDY    55  36  47 NE10      30.16S
POPLAR BLUFF   CLOUDY    56  35  45 NE10      30.09R
WEST PLAINS    CLOUDY    55  32  41 NE14      30.09F

$$



USA.gov is the U.S. government's official web portal to all federal, state and local government web resources and services.